NIMIQ 5

Last updated on Thu Jul 03 2025 00:02:45 GMT+0000 (Coordinated Universal Time)

1 35873U 09050A 25183.55211250 -.00000249 00000+0 00000+0 0 9994 2 35873 0.0191 291.3897 0002587 161.8263 313.6747 1.00271522 57831
UTC large
Height (km)
Speed (km/s)
/
Latitude / Longitude
Inclination (degrees)
Orbital Period (minutes)
Azimuth
Elevation
Range (km)
Doppler Factor

Next 0 passes for location: London (51.5072 / 0.1276)

Sorry there are no passes over London.